Tracking 23611 objects as of 17-Sep-2021
HD Live streaming from Space Station
objects crossing your sky now
Track INSPIRATION-4

DELTA 1 DEB

Track DELTA 1 DEB now!
10-day predictions


NORAD ID: 12255
Int'l Code: 1978-026CY
Perigee: 887.3 km
Apogee: 909.1 km
Inclination: 98.7 °
Period: 102.8 minutes
Semi major axis: 7269 km
RCS: 0.0045 m2 (small)
Launch date: March 5, 1978
Source: United States (US)
Launch site: AIR FORCE WESTERN TEST RANGE (AFWTR)

Note: This is SATELLITE DEBRIS
aabbcc
Your satellite tracking list
Your tracking list is empty




NASA's NSSDC Master Catalog

Two Line Element Set (TLE):
1 12255U 78026CY  21259.19537564  .00000309  00000-0  23495-3 0  9995
2 12255  98.7206 227.7893 0014988 167.8665 206.7782 14.00788236444032
Source of the keplerian elements: AFSPC